Weather reports worldwide

Advertisment
Milano/Malpensa, Italy (16066): temperature & dewpoint: 14.06.2019 06:00:00 - 20.06.2019 06:00:00 (CEST)Milano/Malpensa, Italy (16066): wind speed: 14.06.2019 06:00:00 - 20.06.2019 06:00:00 (CEST)Milano/Malpensa, Italy (16066): wind direction: 14.06.2019 06:00:00 - 20.06.2019 06:00:00 (CEST)Milano/Malpensa, Italy (16066): reduced air pressure: 14.06.2019 06:00:00 - 20.06.2019 06:00:00 (CEST)Milano/Malpensa, Italy (16066): visibility: 14.06.2019 06:00:00 - 20.06.2019 06:00:00 (CEST)Milano/Malpensa, Italy (16066): precipitation: 14.06.2019 06:00:00 - 20.06.2019 06:00:00 (CEST)
Date & Time tt [°C] td [°C] ff [km/h] ff [kn] dd ppp [hPa] vv [km] rr [mm]
20.06.2019 06:00:00 16,0 13,0 4 2 - - 10 -
20.06.2019 05:00:00 16,1 13,6 4 2 N 1012,8 10 0,0
20.06.2019 04:00:00 16,0 14,0 5 3 NNE - 10 -
20.06.2019 03:00:00 17,0 13,0 2 1 - - 10 -
20.06.2019 02:00:00 17,8 13,6 5 3 NNE 1012,9 10 -
20.06.2019 01:00:00 23,0 12,0 5 3 WNW - 10 -
20.06.2019 00:00:00 24,0 11,0 9 5 SW - 10 -
19.06.2019 23:00:00 22,2 12,5 5 3 S 1012,7 10 0,0
19.06.2019 22:00:00 25,0 12,0 15 8 SSW - 10 -
19.06.2019 21:00:00 27,0 15,0 2 1 - - 10 -
19.06.2019 20:00:00 26,6 15,5 11 6 N 1011,9 10 -
19.06.2019 19:00:00 29,0 14,0 13 7 W - 10 -
19.06.2019 18:00:00 30,0 16,0 13 7 W - 10 -
19.06.2019 17:00:00 29,6 16,3 16 9 WSW 1012,2 10 0,0
19.06.2019 16:00:00 31,0 15,0 13 7 SW - 10 -
19.06.2019 15:00:00 31,0 16,0 11 6 SW - 10 -
19.06.2019 14:00:00 29,7 15,9 9 5 WSW 1013,3 10 -
19.06.2019 13:00:00 29,0 16,0 8 4 N - 10 -
19.06.2019 12:00:00 28,0 16,0 8 4 - - 10 -
19.06.2019 11:00:00 26,9 15,2 9 5 NNW 1014,1 10 0,0
19.06.2019 10:00:00 25,0 14,0 13 7 N - 10 -
19.06.2019 09:00:00 23,0 14,0 15 8 N - 10 -
19.06.2019 08:00:00 21,7 13,5 13 7 N 1014,5 10 -
19.06.2019 07:00:00 20,0 13,0 5 3 NW - 10 -
19.06.2019 06:00:00 19,0 12,0 4 2 ENE - 10 -
19.06.2019 05:00:00 18,8 12,4 11 6 NNE 1013,9 10 0,0
19.06.2019 04:00:00 21,0 12,0 16 9 N - 10 -
19.06.2019 03:00:00 22,0 12,0 18 10 N - 10 -
19.06.2019 02:00:00 22,2 12,0 26 14 N 1014,4 10 -
19.06.2019 01:00:00 23,0 14,0 15 8 N - 10 -
19.06.2019 00:00:00 22,0 17,0 13 7 N - 10 -
18.06.2019 23:00:00 21,9 17,2 9 5 N 1014,8 10 0,0
18.06.2019 22:00:00 24,0 16,0 8 4 NE - 10 -
18.06.2019 21:00:00 28,0 15,0 9 5 W - 10 -
18.06.2019 20:00:00 28,4 15,4 13 7 W 1013,9 10 -
18.06.2019 19:00:00 29,0 15,0 11 6 W - 10 -
18.06.2019 18:00:00 29,0 15,0 8 4 W - 10 -
18.06.2019 17:00:00 30,2 15,3 8 4 SW 1014,1 10 0,0
18.06.2019 16:00:00 30,0 16,0 9 5 - - 10 -
18.06.2019 15:00:00 30,0 15,0 13 7 WSW - 10 -
18.06.2019 14:00:00 28,9 16,4 13 7 WSW 1015,9 10 -
18.06.2019 13:00:00 28,0 17,0 5 3 - - 10 -
18.06.2019 12:00:00 27,0 17,0 5 3 - - 10 -
18.06.2019 11:00:00 26,8 16,2 5 3 - 1017,0 10 0,0
18.06.2019 10:00:00 25,0 17,0 4 2 - - 10 -
18.06.2019 09:00:00 23,0 18,0 11 6 NNE - 10 -
18.06.2019 08:00:00 20,6 17,2 15 8 N 1017,3 10 -
18.06.2019 07:00:00 18,0 17,0 13 7 N - 10 -
18.06.2019 06:00:00 19,0 17,0 13 7 NNE - 10 -
18.06.2019 05:00:00 19,9 16,7 15 8 ENE 1016,5 10 0,0
18.06.2019 04:00:00 20,0 18,0 11 6 N - 10 -
18.06.2019 03:00:00 20,0 17,0 9 5 N - 10 -
18.06.2019 02:00:00 19,9 16,4 13 7 N 1016,8 10 -
18.06.2019 01:00:00 20,0 16,0 8 4 N - 10 -
18.06.2019 00:00:00 21,0 16,0 5 3 NE - 10 -
17.06.2019 23:00:00 23,0 16,8 4 2 - 1015,9 10 0,0
17.06.2019 22:00:00 25,0 16,0 2 1 - - 10 -
17.06.2019 21:00:00 28,0 14,0 9 5 W - 10 -
17.06.2019 20:00:00 29,1 13,6 11 6 WSW 1014,8 10 -
17.06.2019 19:00:00 30,0 14,0 9 5 W - 10 -
17.06.2019 18:00:00 30,0 14,0 8 4 WSW - 10 -
17.06.2019 17:00:00 29,3 13,0 8 4 NNW 1015,4 10 0,0
17.06.2019 16:00:00 30,0 13,0 4 2 - - 10 -
17.06.2019 15:00:00 30,0 14,0 4 2 - - 10 -
17.06.2019 14:00:00 27,8 12,3 8 4 - 1017,2 10 -
17.06.2019 13:00:00 29,0 13,0 13 7 S - 10 -
17.06.2019 12:00:00 27,0 15,0 8 4 - - 10 -
17.06.2019 11:00:00 26,7 15,1 5 3 - 1018,2 10 0,0
17.06.2019 10:00:00 26,0 14,0 9 5 E - 10 -
17.06.2019 09:00:00 24,0 13,0 11 6 N - 10 -
17.06.2019 08:00:00 20,7 10,8 11 6 N 1016,9 35 -
17.06.2019 07:00:00 18,0 10,0 13 7 NNE - 10 -
17.06.2019 06:00:00 17,0 9,0 15 8 NNE - 10 -
17.06.2019 05:00:00 16,7 9,4 11 6 NNE 1015,4 10 0,0
17.06.2019 04:00:00 16,0 9,0 13 7 NNE - 10 -
17.06.2019 03:00:00 16,0 10,0 9 5 NNE - 10 -
17.06.2019 02:00:00 17,5 9,9 11 6 NNE 1015,0 10 -
17.06.2019 01:00:00 17,0 13,0 11 6 N - 10 -
17.06.2019 00:00:00 18,0 14,0 11 6 N - 10 -
16.06.2019 23:00:00 20,2 13,7 5 3 N 1014,4 10 0,0
16.06.2019 22:00:00 25,0 12,0 4 2 - - 10 -
16.06.2019 21:00:00 27,0 12,0 13 7 W - 10 -
16.06.2019 20:00:00 28,2 11,9 16 9 W 1013,7 10 -
16.06.2019 19:00:00 29,0 11,0 16 9 WSW - 10 -
16.06.2019 18:00:00 30,0 11,0 15 8 W - 10 -
16.06.2019 17:00:00 29,7 11,5 21 11 WSW 1013,9 10 0,0
16.06.2019 16:00:00 30,0 9,0 11 6 WNW - 10 -
16.06.2019 15:00:00 29,0 10,0 9 5 - - 10 -
16.06.2019 14:00:00 28,2 13,0 18 10 SW 1015,0 10 -
16.06.2019 13:00:00 28,0 8,0 13 7 NW - 10 -
16.06.2019 12:00:00 26,0 9,0 16 9 NW - 10 -
16.06.2019 11:00:00 25,4 10,9 16 9 NW 1015,8 10 0,0
16.06.2019 10:00:00 24,0 12,0 21 11 NNW - 10 -
16.06.2019 09:00:00 21,0 14,0 13 7 NNW - 10 -
16.06.2019 08:00:00 18,7 13,9 15 8 NW 1015,6 10 -
16.06.2019 07:00:00 16,0 13,0 5 3 NNW - 10 -
16.06.2019 06:00:00 13,0 12,0 5 3 N - 10 -
16.06.2019 05:00:00 13,9 13,4 4 2 NNE 1014,6 10 0,0
16.06.2019 04:00:00 15,0 14,0 4 2 - - 10 -
16.06.2019 03:00:00 16,0 14,0 9 5 NW - 10 -
16.06.2019 02:00:00 17,3 14,6 13 7 WNW 1015,3 10 -
16.06.2019 01:00:00 18,0 15,0 5 3 NW - 10 -
16.06.2019 00:00:00 18,0 15,0 8 4 SSE - 10 -
15.06.2019 23:00:00 20,5 17,2 21 11 NW 1014,3 10 0,0
15.06.2019 22:00:00 24,0 18,0 13 7 WSW - 10 -
15.06.2019 21:00:00 25,0 18,0 15 8 WSW - 10 -
15.06.2019 20:00:00 25,7 17,6 15 8 SSW 1013,4 10 -
15.06.2019 19:00:00 27,0 16,0 13 7 SSW - 10 -
15.06.2019 18:00:00 28,0 17,0 9 5 SSW - 10 -
15.06.2019 17:00:00 27,5 18,0 11 6 SSW 1013,9 10 0,0
15.06.2019 16:00:00 27,0 18,0 15 8 - - 10 -
15.06.2019 15:00:00 27,0 18,0 9 5 SSW - 10 -
15.06.2019 14:00:00 26,8 17,7 5 3 - 1015,1 10 -
15.06.2019 13:00:00 27,0 19,0 4 2 - - 10 -
15.06.2019 12:00:00 25,0 17,0 4 2 - - 10 -
15.06.2019 11:00:00 25,0 17,7 4 2 - 1015,9 10 0,0
15.06.2019 10:00:00 24,0 17,0 4 2 - - 10 -
15.06.2019 09:00:00 22,0 17,0 8 4 NNE - 10 -
15.06.2019 08:00:00 20,3 16,8 11 6 N 1015,2 10 -
15.06.2019 07:00:00 18,0 16,0 11 6 NNE - 10 -
15.06.2019 06:00:00 18,0 16,0 9 5 N - 10 -
15.06.2019 05:00:00 18,2 16,0 9 5 N 1014,6 10 0,0
15.06.2019 04:00:00 18,0 16,0 15 8 N - 10 -
15.06.2019 03:00:00 18,0 16,0 21 11 N - 10 -
15.06.2019 02:00:00 17,9 16,1 13 7 NNE 1015,2 10 -
15.06.2019 01:00:00 18,0 16,0 22 12 N - 10 -
15.06.2019 00:00:00 18,0 17,0 16 9 N - 10 -
14.06.2019 23:00:00 18,6 16,8 16 9 N 1016,5 10 0,0
14.06.2019 22:00:00 21,0 16,0 16 9 NNW - 10 -
14.06.2019 21:00:00 22,0 16,0 16 9 NNE - 10 -
14.06.2019 20:00:00 27,3 9,9 11 6 N 1017,2 10 -
14.06.2019 19:00:00 28,0 11,0 11 6 NW - 10 -
14.06.2019 18:00:00 29,0 11,0 5 3 NNW - 10 -
14.06.2019 17:00:00 28,6 10,7 16 9 NW 1017,0 10 0,0
14.06.2019 16:00:00 27,0 11,0 15 8 N - 10 -
14.06.2019 15:00:00 28,0 11,0 16 9 NW - 10 -
14.06.2019 14:00:00 28,3 12,0 13 7 - 1018,3 10 -
14.06.2019 13:00:00 28,0 9,0 5 3 - - 10 -
14.06.2019 12:00:00 27,0 11,0 5 3 - - 10 -
14.06.2019 11:00:00 25,3 12,2 9 5 NNW 1019,5 10 0,0
14.06.2019 10:00:00 24,0 13,0 9 5 N - 10 -
14.06.2019 09:00:00 22,0 12,0 11 6 N - 10 -
14.06.2019 08:00:00 19,6 10,9 15 8 NNE 1019,3 10 -
14.06.2019 07:00:00 17,0 12,0 15 8 N - 10 -
14.06.2019 06:00:00 15,0 11,0 11 6 NNE - 10 -

tt = temperature
td = dewpoint
ff = wind speed
dd = wind direction
ppp = reduced air pressure
vv = visibility
rr = precipitation

Next stations